GW6608 Weather Reports


Display with metric or nautical units.
time (UTC)temp
F
wind
direction
speed
MPH
gust
MPH
rain 1hr
in
rain 24hr
in
rain mn
in
humidity
%
barometer
mb
20260505001835 57 157 0.0 0.0 0.00 0.00 0.00 60 1010.3
20260505001332 59 157 0.0 0.0 0.00 0.00 0.00 58 1010.5
20260505000829 60 157 0.0 0.0 0.00 0.00 0.00 57 1010.1
20260505000327 62 157 0.0 0.0 0.00 0.00 0.00 54 1010.1
20260504235823 64 157 0.0 0.0 0.00 0.00 0.00 49 1010.1
20260504235320 66 157 0.0 0.0 0.00 0.00 0.00 39 1009.8
20260504234817 66 158 0.0 0.0 0.00 0.00 0.00 36 1009.9
20260504234315 67 158 0.0 0.0 0.00 0.00 0.00 36 1010.0
20260504233811 67 157 0.0 0.0 0.00 0.00 0.00 36 1009.8
20260504233306 67 166 0.0 1.0 0.00 0.00 0.00 35 1009.6
20260504232803 68 138 0.0 0.0 0.00 0.00 0.00 35 1009.4
20260504232301 68 165 0.0 1.0 0.00 0.00 0.00 34 1009.4
20260504231757 68 127 0.0 1.0 0.00 0.00 0.00 33 1009.5
20260504231254 69 150 0.0 2.0 0.00 0.00 0.00 34 1009.3
20260504230750 69 171 0.0 1.0 0.00 0.00 0.00 34 1009.2
20260504230248 69 138 1.0 2.0 0.00 0.00 0.00 35 1009.2
20260504225747 69 138 0.0 1.0 0.00 0.00 0.00 34 1009.1
20260504225242 69 166 0.0 0.0 0.00 0.00 0.00 34 1009.0
20260504224740 69 149 0.0 0.0 0.00 0.00 0.00 34 1009.0
20260504224237 69 154 0.0 1.0 0.00 0.00 0.00 33 1008.9
20260504223733 69 114 0.0 1.0 0.00 0.00 0.00 33 1008.9
20260504223229 70 160 0.0 3.0 0.00 0.00 0.00 33 1008.8
20260504222726 70 172 1.0 3.0 0.00 0.00 0.00 32 1008.7
20260504222223 70 182 1.0 3.0 0.00 0.00 0.00 31 1008.9
20260504221720 71 217 3.0 4.0 0.00 0.00 0.00 32 1008.8
20260504221217 71 178 1.0 2.0 0.00 0.00 0.00 31 1008.7
20260504220714 71 192 1.0 4.0 0.00 0.00 0.00 30 1008.9
20260504220212 70 177 2.0 3.0 0.00 0.00 0.00 30 1008.9
20260504215708 70 143 1.0 3.0 0.00 0.00 0.00 33 1008.8
20260504215205 70 160 0.0 0.0 0.00 0.00 0.00 33 1008.9
20260504214700 70 188 2.0 2.0 0.00 0.00 0.00 32 1008.7
20260504214157 70 219 2.0 3.0 0.00 0.00 0.00 33 1008.7
20260504213654 70 187 1.0 3.0 0.00 0.00 0.00 33 1008.8
20260504213151 71 195 1.0 2.0 0.00 0.00 0.00 32 1008.8
20260504212647 71 173 1.0 4.0 0.00 0.00 0.00 32 1008.6
20260504212144 72 131 1.0 3.0 0.00 0.00 0.00 32 1008.7
20260504211641 72 183 2.0 4.0 0.00 0.00 0.00 32 1008.7
20260504211137 72 168 0.0 2.0 0.00 0.00 0.00 32 1008.7
20260504210636 72 169 1.0 1.0 0.00 0.00 0.00 32 1008.9
20260504210131 72 71 1.0 2.0 0.00 0.00 0.00 31 1008.8
20260504205629 72 135 2.0 3.0 0.00 0.00 0.00 31 1008.8
20260504205126 71 143 0.0 3.0 0.00 0.00 0.00 32 1008.7
20260504204625 72 200 3.0 3.0 0.00 0.00 0.00 32 1008.9
20260504204123 73 196 2.0 6.0 0.00 0.00 0.00 30 1008.6
20260504203622 73 180 1.0 3.0 0.00 0.00 0.00 31 1008.7
20260504203120 73 128 1.0 2.0 0.00 0.00 0.00 32 1008.9
20260504202619 73 207 1.0 4.0 0.00 0.00 0.00 30 1008.7
20260504202117 73 90 2.0 7.0 0.00 0.00 0.00 30 1008.7
20260504201613 72 226 2.0 3.0 0.00 0.00 0.00 31 1008.6
20260504201111 72 229 2.0 6.0 0.00 0.00 0.00 32 1008.7
20260504200608 73 241 4.0 7.0 0.00 0.00 0.00 30 1008.7
20260504200104 73 249 3.0 3.0 0.00 0.00 0.00 30 1008.8
20260504195601 74 175 2.0 3.0 0.00 0.00 0.00 30 1008.7
20260504195057 73 151 1.0 2.0 0.00 0.00 0.00 30 1008.9
20260504194554 74 182 5.0 7.0 0.00 0.00 0.00 30 1008.9
20260504194049 73 202 1.0 3.0 0.00 0.00 0.00 31 1008.8
20260504193546 72 166 2.0 3.0 0.00 0.00 0.00 33 1008.7
20260504193045 72 72 2.0 6.0 0.00 0.00 0.00 31 1008.8
20260504192543 72 188 0.0 3.0 0.00 0.00 0.00 33 1008.9
20260504192041 70 137 0.0 3.0 0.00 0.00 0.00 32 1008.9
20260504191538 69 175 1.0 3.0 0.00 0.00 0.00 33 1009.1
20260504191034 68 197 2.0 3.0 0.00 0.00 0.00 33 1009.0
20260504190531 68 218 6.0 7.0 0.00 0.00 0.00 34 1008.9
20260504190026 68 213 2.0 6.0 0.00 0.00 0.00 33 1009.0
20260504185524 68 132 1.0 1.0 0.00 0.00 0.00 33 1009.3
20260504185020 68 172 2.0 3.0 0.00 0.00 0.00 34 1009.2
20260504184515 68 136 1.0 2.0 0.00 0.00 0.00 34 1009.3
20260504184011 68 204 2.0 2.0 0.00 0.00 0.00 33 1009.2
20260504183509 68 132 0.0 2.0 0.00 0.00 0.00 33 1009.1
20260504183007 68 72 3.0 4.0 0.00 0.00 0.00 32 1009.2
20260504182503 68 129 0.0 3.0 0.00 0.00 0.00 32 1009.1
20260504182000 69 212 2.0 4.0 0.00 0.00 0.00 32 1009.0
20260504181457 69 121 1.0 3.0 0.00 0.00 0.00 32 1009.0
20260504180956 69 128 1.0 9.0 0.00 0.00 0.00 32 1009.0
20260504180455 69 184 3.0 8.0 0.00 0.00 0.00 33 1009.0
20260504175953 69 176 1.0 7.0 0.00 0.00 0.00 31 1009.0
20260504175449 69 223 3.0 4.0 0.00 0.00 0.00 32 1009.1
20260504174947 69 216 2.0 3.0 0.00 0.00 0.00 31 1009.1
20260504174444 70 112 1.0 7.0 0.00 0.00 0.00 31 1009.1
20260504173942 71 194 2.0 6.0 0.00 0.00 0.00 30 1009.0
20260504173437 72 239 4.0 6.0 0.00 0.00 0.00 29 1008.8
20260504172936 73 230 4.0 6.0 0.00 0.00 0.00 28 1009.1
20260504172431 73 228 4.0 11.0 0.00 0.00 0.00 29 1009.0
20260504171928 73 241 4.0 6.0 0.00 0.00 0.00 29 1008.9
20260504171425 71 212 6.0 9.0 0.00 0.00 0.00 29 1008.9
20260504170922 72 217 2.0 6.0 0.00 0.00 0.00 30 1008.9
20260504170418 72 105 2.0 9.0 0.00 0.00 0.00 30 1009.0
20260504160337 70 193 4.0 6.0 0.00 0.00 0.00 34 1009.3
20260504150802 64 195 3.0 6.0 0.00 0.00 0.00 40 1010.3
20260504150259 65 215 7.0 8.0 0.00 0.00 0.00 39 1010.5
20260504141229 61 140 2.0 6.0 0.00 0.00 0.00 43 1011.1
20260504140725 61 227 2.0 4.0 0.00 0.00 0.00 41 1011.4
20260504140220 62 170 1.0 3.0 0.00 0.00 0.00 42 1011.5
20260504130649 56 206 2.0 3.0 0.00 0.00 0.00 51 1012.1
20260504130145 56 215 3.0 3.0 0.00 0.00 0.00 51 1011.9
20260504120110 50 120 0.0 2.0 0.00 0.00 0.00 59 1013.0
20260504110537 48 186 2.0 2.0 0.00 0.00 0.00 56 1012.9
20260504100459 43 188 1.0 1.0 0.00 0.00 0.00 63 1012.8
20260504081857 42 181 0.0 1.0 0.00 0.00 0.00 62 1012.6
20260504081354 42 181 0.0 0.0 0.00 0.00 0.00 63 1012.8
20260504080850 41 181 0.0 1.0 0.00 0.00 0.00 63 1012.7
20260504080347 41 181 0.0 1.0 0.00 0.00 0.00 63 1012.7
20260504070315 41 180 1.0 1.0 0.00 0.00 0.00 64 1012.6
20260504060235 39 175 0.0 0.0 0.00 0.00 0.00 67 1012.5
20260504050703 41 175 0.0 0.0 0.00 0.00 0.00 64 1012.5
20260504050200 41 175 0.0 0.0 0.00 0.00 0.00 64 1012.5
20260504045658 41 175 0.0 0.0 0.00 0.00 0.00 64 1012.6
20260504045157 41 175 0.0 0.0 0.00 0.00 0.00 64 1012.4
20260504044655 41 175 0.0 0.0 0.00 0.00 0.00 64 1012.4
20260504044152 41 175 0.0 0.0 0.00 0.00 0.00 64 1012.5
20260504043649 41 175 0.0 0.0 0.00 0.00 0.00 64 1012.2
20260504043146 41 175 0.0 0.0 0.00 0.00 0.00 64 1012.3
20260504042644 41 175 0.0 0.0 0.00 0.00 0.00 65 1012.3
20260504042140 41 178 0.0 0.0 0.00 0.00 0.00 65 1012.3
20260504041636 41 174 0.0 0.0 0.00 0.00 0.00 66 1012.2
20260504041132 41 174 0.0 0.0 0.00 0.00 0.00 65 1012.3
20260504040630 40 174 0.0 0.0 0.00 0.00 0.00 65 1012.1
20260504040127 40 173 0.0 0.0 0.00 0.00 0.00 65 1012.2
20260504035623 40 173 0.0 0.0 0.00 0.00 0.00 65 1012.2
20260504035120 40 173 0.0 0.0 0.00 0.00 0.00 65 1012.0
20260504034618 40 173 0.0 0.0 0.00 0.00 0.00 65 1012.0
20260504034114 41 173 0.0 0.0 0.00 0.00 0.00 65 1012.1
20260504033612 41 173 0.0 0.0 0.00 0.00 0.00 64 1012.1
20260504033109 41 173 0.0 0.0 0.00 0.00 0.00 63 1012.1
20260504032606 42 173 0.0 0.0 0.00 0.00 0.00 62 1011.8
20260504032103 42 173 0.0 0.0 0.00 0.00 0.00 61 1012.0
20260504031600 42 173 0.0 0.0 0.00 0.00 0.00 62 1011.9
20260504031056 42 173 0.0 0.0 0.00 0.00 0.00 62 1012.0
20260504030553 42 173 0.0 0.0 0.00 0.00 0.00 62 1012.1
20260504030049 42 173 0.0 0.0 0.00 0.00 0.00 62 1012.2
20260504025547 42 173 0.0 0.0 0.00 0.00 0.00 61 1011.9
20260504025044 42 173 0.0 0.0 0.00 0.00 0.00 61 1012.1
20260504024541 42 173 0.0 0.0 0.00 0.00 0.00 61 1012.0
20260504024038 42 173 0.0 0.0 0.00 0.00 0.00 61 1011.9
20260504023534 42 173 0.0 0.0 0.00 0.00 0.00 61 1011.8
20260504023030 42 172 0.0 0.0 0.00 0.00 0.00 61 1011.7
20260504022526 42 171 0.0 0.0 0.00 0.00 0.00 60 1011.8
20260504022023 43 171 0.0 0.0 0.00 0.00 0.00 60 1011.8
20260504021520 42 170 0.0 0.0 0.00 0.00 0.00 60 1011.8
20260504021017 43 170 0.0 0.0 0.00 0.00 0.00 60 1011.9
20260504020514 43 170 0.0 0.0 0.00 0.00 0.00 60 1011.8
20260504020011 43 170 0.0 0.0 0.00 0.00 0.00 59 1011.9
20260504015507 43 170 0.0 0.0 0.00 0.00 0.00 59 1011.8
20260504015003 43 170 0.0 0.0 0.00 0.00 0.00 59 1011.8
20260504014459 43 170 0.0 0.0 0.00 0.00 0.00 59 1011.7
20260504013956 43 170 0.0 0.0 0.00 0.00 0.00 58 1011.9
20260504013454 44 170 0.0 0.0 0.00 0.00 0.00 58 1011.9
20260504012950 44 170 0.0 0.0 0.00 0.00 0.00 58 1011.9
20260504012448 44 170 0.0 0.0 0.00 0.00 0.00 57 1011.6
20260504011946 44 170 0.0 0.0 0.00 0.00 0.00 56 1011.8
20260504011442 45 170 0.0 0.0 0.00 0.00 0.00 55 1011.6
20260504010938 45 172 0.0 0.0 0.00 0.00 0.00 54 1011.6
20260504010434 45 160 0.0 0.0 0.00 0.00 0.00 55 1011.6
20260504005930 45 159 0.0 0.0 0.00 0.00 0.00 53 1011.6
20260504005427 46 159 0.0 0.0 0.00 0.00 0.00 53 1011.4
20260504004925 46 162 0.0 0.0 0.00 0.00 0.00 52 1011.6
20260504004422 46 170 0.0 1.0 0.00 0.00 0.00 51 1011.2
20260504003919 47 149 0.0 2.0 0.00 0.00 0.00 50 1011.2
20260504003415 47 135 0.0 2.0 0.00 0.00 0.00 50 1011.0
20260504002912 47 141 0.0 1.0 0.00 0.00 0.00 49 1010.8
20260504002409 47 163 0.0 1.0 0.00 0.00 0.00 49 1010.7